When you browse on this site, cookies collect data to enhance your experience and personalize the content and advertising you see.
Visit our Privacy Policy to learn more. By continuing to use the site, you agree to this use of cookies and data.
  • Em Portugal
  • Lista de países
  • Para 7 dias
  • Temperatura da água
  • Mapas de satélite
  • Mapa do tempo
  • Widgets de tempo
  • user-avatar
    Iniciar Sessão

    Previsão horária em Dhaka

    Hoje, 24 Maio, Sexta-feira

    Tempo Temperatura Precipitação Vento Pressão Humidade
    00:00 +32°C° 0 mm 2 m/s 753 mmHg 76%
    01:00 +31°C° 6.5 mm 2 m/s 753 mmHg 78%
    02:00 +31°C° 6.5 mm 3 m/s 752 mmHg 80%
    03:00 +30°C° 6.5 mm 3 m/s 752 mmHg 83%
    04:00 +30°C° 0 mm 3 m/s 752 mmHg 83%
    05:00 +30°C° 0 mm 3 m/s 753 mmHg 83%
    06:00 +32°C° 0 mm 4 m/s 753 mmHg 84%
    07:00 +33°C° 0.9 mm 4 m/s 753 mmHg 78%
    08:00 +34°C° 0.9 mm 4 m/s 753 mmHg 71%
    09:00 +36°C° 0.9 mm 4 m/s 754 mmHg 64%
    10:00 +37°C° 0 mm 5 m/s 753 mmHg 61%
    11:00 +37°C° 0 mm 5 m/s 753 mmHg 57%
    12:00 +37°C° 0 mm 5 m/s 753 mmHg 58%
    13:00 +37°C° 0.4 mm 5 m/s 752 mmHg 57%
    14:00 +38°C° 0.4 mm 4 m/s 751 mmHg 56%
    15:00 +38°C° 0.4 mm 4 m/s 751 mmHg 55%
    16:00 +37°C° 2 mm 4 m/s 750 mmHg 58%
    17:00 +36°C° 2 mm 4 m/s 750 mmHg 61%
    18:00 +35°C° 0 mm 2 m/s 750 mmHg 69%
    19:00 +34°C° 1.8 mm 2 m/s 750 mmHg 71%
    20:00 +34°C° 1.8 mm 3 m/s 751 mmHg 74%
    21:00 +33°C° 1.8 mm 3 m/s 751 mmHg 76%
    22:00 +33°C° 0.3 mm 4 m/s 751 mmHg 78%
    23:00 +33°C° 0.3 mm 4 m/s 751 mmHg 79%

    Amanhã, 25 Maio, Sábado

    Tempo Temperatura Precipitação Vento Pressão Humidade
    00:00 +32°C° 0.3 mm 5 m/s 751 mmHg 81%
    01:00 +32°C° 0.3 mm 4 m/s 751 mmHg 82%
    02:00 +32°C° 0.3 mm 4 m/s 751 mmHg 82%
    03:00 +31°C° 0.3 mm 3 m/s 751 mmHg 83%
    04:00 +32°C° 2 mm 4 m/s 751 mmHg 83%
    05:00 +32°C° 2 mm 4 m/s 751 mmHg 83%
    06:00 +32°C° 2 mm 5 m/s 750 mmHg 82%
    07:00 +33°C° 0 mm 5 m/s 751 mmHg 77%
    08:00 +34°C° 0 mm 6 m/s 751 mmHg 72%
    09:00 +35°C° 0 mm 6 m/s 751 mmHg 67%
    10:00 +38°C° 0 mm 6 m/s 751 mmHg 62%
    11:00 +39°C° 0 mm 5 m/s 751 mmHg 58%
    12:00 +40°C° 0 mm 5 m/s 751 mmHg 53%
    13:00 +40°C° 0.5 mm 5 m/s 750 mmHg 53%
    14:00 +40°C° 0.5 mm 5 m/s 749 mmHg 54%
    15:00 +40°C° 0.5 mm 5 m/s 749 mmHg 54%
    16:00 +39°C° 1.1 mm 5 m/s 748 mmHg 59%
    17:00 +38°C° 1.1 mm 6 m/s 747 mmHg 63%
    18:00 +36°C° 1.1 mm 6 m/s 747 mmHg 67%
    19:00 +35°C° 1.1 mm 5 m/s 748 mmHg 69%
    20:00 +34°C° 1.1 mm 5 m/s 749 mmHg 72%
    21:00 +33°C° 1.1 mm 4 m/s 749 mmHg 74%
    22:00 +33°C° 0 mm 4 m/s 749 mmHg 76%
    23:00 +33°C° 0 mm 3 m/s 749 mmHg 78%

    Depois de amanhã, 26 Maio, Domingo

    Tempo Temperatura Precipitação Vento Pressão Humidade
    00:00 +33°C° 0 mm 3 m/s 749 mmHg 80%
    01:00 +31°C° 0 mm 3 m/s 749 mmHg 82%
    02:00 +32°C° 0 mm 4 m/s 749 mmHg 83%
    03:00 +32°C° 0 mm 4 m/s 749 mmHg 84%
    04:00 +32°C° 0.4 mm 4 m/s 749 mmHg 84%
    05:00 +31°C° 0.4 mm 3 m/s 750 mmHg 84%
    06:00 +31°C° 0.4 mm 2 m/s 750 mmHg 84%
    07:00 +33°C° 0 mm 3 m/s 751 mmHg 78%
    08:00 +35°C° 0 mm 3 m/s 751 mmHg 72%
    09:00 +36°C° 0 mm 4 m/s 752 mmHg 66%
    10:00 +38°C° 0 mm 4 m/s 751 mmHg 61%
    11:00 +40°C° 0 mm 4 m/s 751 mmHg 55%
    12:00 +41°C° 0 mm 4 m/s 751 mmHg 50%
    13:00 +41°C° 0.4 mm 4 m/s 750 mmHg 50%
    14:00 +41°C° 0.4 mm 4 m/s 749 mmHg 50%
    15:00 +41°C° 0.4 mm 4 m/s 749 mmHg 51%
    16:00 +38°C° 1.4 mm 4 m/s 749 mmHg 57%
    17:00 +37°C° 1.4 mm 5 m/s 748 mmHg 63%
    18:00 +35°C° 1.4 mm 6 m/s 748 mmHg 69%
    19:00 +35°C° 0.1 mm 6 m/s 749 mmHg 72%
    20:00 +34°C° 0.1 mm 6 m/s 749 mmHg 74%
    21:00 +34°C° 0.1 mm 6 m/s 750 mmHg 77%
    22:00 +33°C° 0 mm 5 m/s 750 mmHg 79%
    23:00 +33°C° 0 mm 5 m/s 750 mmHg 81%

    27 Maio, Segunda-feira

    Tempo Temperatura Precipitação Vento Pressão Humidade
    00:00 +32°C° 0 mm 5 m/s 750 mmHg 83%
    01:00 +32°C° 0.3 mm 4 m/s 750 mmHg 83%
    02:00 +31°C° 0.3 mm 3 m/s 750 mmHg 84%
    03:00 +31°C° 0.3 mm 3 m/s 750 mmHg 85%
    04:00 +31°C° 0 mm 3 m/s 750 mmHg 84%
    05:00 +32°C° 0 mm 4 m/s 750 mmHg 84%
    06:00 +32°C° 0 mm 4 m/s 751 mmHg 83%
    07:00 +33°C° 0 mm 4 m/s 751 mmHg 78%
    08:00 +34°C° 0 mm 5 m/s 751 mmHg 73%
    09:00 +35°C° 0 mm 5 m/s 752 mmHg 68%
    10:00 +37°C° 0 mm 5 m/s 752 mmHg 63%
    11:00 +39°C° 0 mm 5 m/s 751 mmHg 57%
    12:00 +41°C° 0 mm 5 m/s 751 mmHg 52%
    13:00 +41°C° 0 mm 5 m/s 750 mmHg 49%
    14:00 +42°C° 0 mm 4 m/s 750 mmHg 45%
    15:00 +43°C° 0 mm 4 m/s 749 mmHg 42%
    16:00 +42°C° 0 mm 4 m/s 749 mmHg 46%
    17:00 +41°C° 0 mm 5 m/s 748 mmHg 50%
    18:00 +40°C° 0 mm 5 m/s 748 mmHg 53%
    19:00 +39°C° 0 mm 6 m/s 749 mmHg 58%
    20:00 +36°C° 0 mm 6 m/s 749 mmHg 62%
    21:00 +35°C° 0 mm 6 m/s 750 mmHg 67%
    22:00 +34°C° 0.1 mm 5 m/s 750 mmHg 71%
    23:00 +34°C° 0.1 mm 5 m/s 750 mmHg 75%

    28 Maio, Terça-feira

    Tempo Temperatura Precipitação Vento Pressão Humidade
    00:00 +33°C° 0.1 mm 4 m/s 750 mmHg 79%
    01:00 +33°C° 0 mm 4 m/s 750 mmHg 80%
    02:00 +33°C° 0 mm 3 m/s 750 mmHg 82%
    03:00 +31°C° 0 mm 3 m/s 750 mmHg 83%
    04:00 +31°C° 0 mm 3 m/s 750 mmHg 82%
    05:00 +32°C° 0 mm 4 m/s 751 mmHg 82%
    06:00 +32°C° 0 mm 4 m/s 751 mmHg 81%
    07:00 +33°C° 0 mm 4 m/s 752 mmHg 77%
    08:00 +34°C° 0 mm 4 m/s 752 mmHg 73%
    09:00 +35°C° 0 mm 4 m/s 752 mmHg 70%
    10:00 +36°C° 0 mm 4 m/s 752 mmHg 62%
    11:00 +38°C° 0 mm 4 m/s 752 mmHg 54%
    12:00 +40°C° 0 mm 3 m/s 751 mmHg 47%
    13:00 +42°C° 0 mm 3 m/s 750 mmHg 44%
    14:00 +43°C° 0 mm 3 m/s 749 mmHg 41%
    15:00 +43°C° 0 mm 3 m/s 748 mmHg 38%
    16:00 +42°C° 0 mm 4 m/s 748 mmHg 44%
    17:00 +41°C° 0 mm 5 m/s 748 mmHg 49%
    18:00 +40°C° 0 mm 6 m/s 748 mmHg 55%
    19:00 +38°C° 0 mm 6 m/s 749 mmHg 59%
    20:00 +36°C° 0 mm 6 m/s 749 mmHg 63%
    21:00 +35°C° 0 mm 6 m/s 750 mmHg 67%
    22:00 +34°C° 0.7 mm 6 m/s 750 mmHg 71%
    23:00 +34°C° 0.7 mm 5 m/s 751 mmHg 74%

    29 Maio, Quarta-feira

    Tempo Temperatura Precipitação Vento Pressão Humidade
    00:00 +33°C° 0.7 mm 4 m/s 751 mmHg 78%
    01:00 +33°C° 0 mm 4 m/s 750 mmHg 79%
    02:00 +33°C° 0 mm 3 m/s 750 mmHg 80%
    03:00 +33°C° 0 mm 3 m/s 750 mmHg 81%
    04:00 +31°C° 0 mm 3 m/s 750 mmHg 81%
    05:00 +31°C° 0 mm 3 m/s 750 mmHg 82%
    06:00 +31°C° 0 mm 3 m/s 751 mmHg 82%
    07:00 +33°C° 0 mm 4 m/s 751 mmHg 77%
    08:00 +34°C° 0 mm 4 m/s 752 mmHg 72%
    09:00 +35°C° 0 mm 4 m/s 752 mmHg 67%
    10:00 +37°C° 0 mm 5 m/s 752 mmHg 61%
    11:00 +39°C° 0 mm 5 m/s 751 mmHg 55%
    12:00 +41°C° 0 mm 5 m/s 751 mmHg 48%
    13:00 +42°C° 0 mm 5 m/s 750 mmHg 46%
    14:00 +42°C° 0 mm 5 m/s 749 mmHg 43%
    15:00 +43°C° 0 mm 5 m/s 748 mmHg 40%
    16:00 +42°C° 0 mm 5 m/s 748 mmHg 44%
    17:00 +41°C° 0 mm 6 m/s 748 mmHg 47%
    18:00 +40°C° 0 mm 6 m/s 748 mmHg 50%
    19:00 +39°C° 0 mm 6 m/s 748 mmHg 55%
    20:00 +36°C° 0 mm 7 m/s 749 mmHg 59%
    21:00 +35°C° 0 mm 7 m/s 750 mmHg 64%
    22:00 +34°C° 0 mm 7 m/s 750 mmHg 68%
    23:00 +34°C° 0 mm 6 m/s 750 mmHg 72%
    Mostrar mais